Regional Weather Roundup
Issued by NWS Wakefield, VA

Home | Current Version | Previous Version | Text Only | Print | Product List | Glossary Off
Versions: 1 2 3 4 5 6 7 8 9 10 11 12 13 14 15 16 17 18 19 20 21 22 23 24 25 26 27
000 ASUS41 KAKQ 110415 RWRAKQ REGIONAL WEATHER ROUNDUP NATIONAL WEATHER SERVICE WAKEFIELD VA 1200 AM EDT TUE MAY 11 2021 Note: "fair" indicates few or no clouds below 12,000 feet with no significant weather and/or obstructions to visibility. * = Denotes station may not report precipitation (e.g., rain,snow,etc.), thunder or fog. VAZ042-051-052>054-056-110500- NORTHERN VIRGINIA CITY SKY/WX TMP DP RH WIND PRES REMARKS WASH NATIONAL PTCLDY 55 34 45 NW8 30.08R DULLES PTCLDY 47 38 71 NW5 30.07F FORT BELVOIR PTCLDY 45 41 88 CALM 30.08S QUANTICO CLEAR 53 43 68 W6 30.09S FREDERICKSBRG* PTCLDY 53 41 65 CALM 30.07S STAFFORD* PTCLDY 48 34 57 N8 30.11F WARRENTON CLEAR 47 41 80 CALM 30.08S CULPEPER* CLOUDY 50 42 73 CALM 30.10R MANASSAS* PTCLDY 47 40 76 CALM 30.09S LEESBURG* PTCLDY 50 39 66 NW5 30.10S WINCHESTER MOCLDY 46 37 71 CALM 30.06F FRONT ROYAL* FAIR 46 41 81 CALM 30.08S LURAY* FAIR 50 41 71 NW6 30.08F $$ VAZ048-049-060>072-079>083-110500- CENTRAL AND SOUTH CENTRAL VIRGINIA CITY SKY/WX TMP DP RH WIND PRES REMARKS RICHMOND MOCLDY 51 47 86 N3 30.07S CHESTERFIELD* MOCLDY 47 47 100 NW5 30.09R PETERSBURG* CLEAR 47 45 94 CALM 30.08S HANOVER CLEAR 49 46 90 CALM 30.09S TAPPAHANNOCK* CLEAR 45 45 100 CALM 30.08S QUINTON* FAIR 47 47 100 CALM 30.07F CHARLOTTSVILLE MOCLDY 58 35 42 NE7 30.05F GORDONSVILLE* MOCLDY 56 38 51 CALM 30.07F ORANGE* MOCLDY 54 36 50 N3 30.08S LOUISA* PTCLDY 46 40 82 CALM 30.13R BUMPASS* FAIR 56 35 45 N3 30.08R FARMVILLE* PTCLDY 52 48 86 CALM 30.07S CREWE* MOCLDY 49 47 92 CALM 30.08R FORT PICKETT* MOCLDY N/A N/A N/A CALM 30.08R CHASE CITY* FAIR 53 52 95 CALM 30.08S CLARKSVILLE* MOCLDY 55 54 94 CALM 30.07R SOUTH HILL* PTCLDY 52 50 93 CALM 30.13R LAWRENCEVILLE* FAIR 54 52 94 CALM 30.09R EMPORIA* N/A N/A N/A N/A MISG N/A $$ VAZ088>098-110500- SOUTHEAST VIRGINIA CITY SKY/WX TMP DP RH WIND PRES REMARKS NORFOLK PTCLDY 58 52 80 CALM 30.05S VIRGINIA BEACH PTCLDY 57 51 80 CALM 30.04F NORFOLK NAVAL MOCLDY 54 50 86 CALM 30.06F WEST POINT* CLEAR 47 46 97 CALM 30.07S SALUDA* FAIR 49 49 100 CALM 30.07R NEWPORT NEWS PTCLDY 53 52 96 NW5 30.07R LANGLEY AFB PTCLDY 53 53 100 CALM 30.05R FORT EUSTIS PTCLDY 55 53 95 CALM 30.05R WILLIAMSBURG* PTCLDY 54 54 100 CALM 30.08R HR EXEC AP* FAIR 48 48 100 SW3 30.08R FRANKLIN* MOCLDY 55 54 98 CALM 30.07R US460-WAKEFLD PTCLDY 53 53 100 CALM 30.07R $$ VAZ020-022-025-037-045-110500- WEST CENTRAL AND SOUTHWEST VIRGINIA CITY SKY/WX TMP DP RH WIND PRES REMARKS STAUNTON* MOCLDY 49 39 67 W5 30.12R WAYNESBORO* MOCLDY 50 37 60 CALM 30.10R HOT SPRINGS VA MOCLDY 45 33 63 W8 30.11S LYNCHBURG CLOUDY 61 45 55 E5 30.07F DANVILLE CLOUDY 61 55 81 NE6 30.07R SOUTH BOSTON* FAIR 54 53 95 CALM 30.08S MARTINSVILLE CLOUDY 53 42 66 NW6 30.11R ROANOKE CLOUDY 55 38 52 N6 30.11S BLACKSBURG MOCLDY 47 43 84 CALM 30.13F DUBLIN* MOCLDY 47 39 76 NW5 30.12F MARION* CLOUDY 46 39 78 CALM 30.15S HILLSVILLE* MOCLDY 46 39 77 N8 30.09S RICHLANDS* FAIR 42 40 93 CALM 30.13S WISE* CLEAR 36 36 100 SW3 30.14S ABINGDON* CLOUDY 49 43 79 CALM 30.12R $$ MDZ021>025-VAZ099-100-110500- SOUTHERN MARYLAND AND THE DELMARVA PENINSULA CITY SKY/WX TMP DP RH WIND PRES REMARKS PATUXENT RIVER CLEAR 50 50 100 W5 30.06R BAY BRIDGE APT NOT AVBL LEONARDTOWN CLEAR 46 45 93 CALM 30.09R DOVER CLEAR 49 45 85 SW3 30.03R GEORGETOWN CLEAR 49 43 80 CALM 30.04S EASTON CLEAR 50 49 96 CALM 30.10R CAMBRIDGE CLEAR 48 48 100 CALM 30.06R SALISBURY CLEAR 49 46 90 CALM 30.05R TANGIER FAIR 59 49 68 NE3 30.07R OCEAN CITY CLEAR 48 46 93 CALM 30.05S WALLOPS ISLAND CLEAR 52 51 97 SW3 30.07R ACCOMACK* CLEAR 48 39 71 CALM 30.06R $$ NCZ012>017-030>032-110500- NORTH CENTRAL AND EASTERN NORTH CAROLINA CITY SKY/WX TMP DP RH WIND PRES REMARKS ROANOKE RAPIDS CLOUDY 54 54 100 CALM 30.07R RALEIGH MOCLDY 60 57 89 NE7 30.05R ELIZABETH CITY CLOUDY 57 54 89 NE8 30.04S AHOSKIE* CLOUDY 56 56 100 CALM 30.07R EDENTON* MOCLDY 57 56 97 NE5 30.05F CURRITUCK* CLOUDY 56 56 100 NE3 30.04S KILL DEVIL HLS CLOUDY 54 53 94 N7 30.02F MANTEO CLOUDY 56 52 86 NE13G18 30.03F CAPE HATTERAS LGT RAIN 61 59 93 NE10G21 30.00R TARBORO* CLOUDY 58 55 87 N7 30.05R GOLDSBORO CLOUDY 63 61 94 E15 29.95F WASHINGTON CLOUDY 60 55 83 NE6 30.03S GREENVILLE CLOUDY 63 55 77 NE9 30.05R NEW BERN MOCLDY 61 58 90 NE9 30.02R WILMINGTON PTCLDY 71 67 87 SW3 29.97F $$ VAZ048-110500- ELSEWHERE CITY SKY/WX TMP DP RH WIND PRES REMARKS HARRISBURG PA CLOUDY 52 39 61 NW6 30.05R BALTIMORE PTCLDY 50 39 66 CALM 30.06S ANNAPOLIS CLEAR 58 41 53 NW5 30.05S ANDREWS AFB CLEAR 50 38 63 CALM 30.06R PHILADELPHIA MOCLDY 56 38 50 NW8 30.03S GREENSBORO MOCLDY 60 46 59 N10G17 30.05R ROCKY MOUNT CLOUDY 61 55 81 NE8 30.04R $$ VAZ100-110500- MARINE STATION/POSITION TIME TEMP WIND PRES WAVE SWELL AIR SEA DIR/SP/G HT/PER HT/PER (UTC) (F) (DEG/KT/KT) (MB) (FT/S) (FT/S) CAPE MAY NJ 0324 52 58 100/ 3/ 3 1016.7 LEWES DE 0330 57 59 CALM / 1 1017.0F 15NM E FENWICK I 0350 N/A 3/ 8 OCEAN-CITY-INLET 0330 53 58 340/ 1/ 2 1018.1F 44089 WALLOPS IS 0356 56 N/A 2/ 8 WACHAPREAGUE VA 0330 54 64 CALM / 2 1017.7R THOMAS POINT MD 0400 57 59 290/ 6/ 7 1018.9R GOOSES REEF MD 0348 57 62 1018.7R COVE POINT MD 0330 58 270/ 5/ 7 1017.9R SOLOMONS ISLAND 0330 56 63 300/ 5/ 5 1018.0R BISHOPS HEAD MD 0330 58 63 50/ 3/ 5 1017.7R PINEY POINT MD 0330 10/ 3/ 4 N/A CAMBRIDGE MD 0330 57 64 260/ 1/ 2 1017.6R LEWISETTA VA 0330 57 62 240/ 4/ 4 1018.1R RAPPAHANNOCK LGT 0330 330/ 8/ 9 1018.4R YORK RVR RNG VA 0330 60 330/ 4/ 4 N/A YORKTOWN VA 0330 57 64 240/ 2/ 4 1017.5S DOMINION TERM VA 0330 60 CALM / 2 1018.0R KIPTOPEKE VA 0330 63 120/ 2/ 5 N/A CAPE HENRY VA 0330 56 160/ 3/ 4 1018.0S WILLOUBY STN VA 0330 60 100/ 4/ 5 1017.2S S CRANEY ISL VA 0330 60 80/ 3/ 3 1017.5F CAPE HENRY BUOY 0356 59 N/A 3/ 8 64NM E OF VA BCH 0350 60 50/ 10/ 12 1017.1F 4/ 8 3/ 8 DUCK PIER NC 0330 56 30/ 15/ 17 1016.9S 44100 DUCK FRF 0356 60 N/A 3/ 7 44056 DUCK FRF 0356 60 N/A 3/ 4 OREGON INLET NC 0330 57 69 360/ 11/ 15 1016.9R HATTERAS NC 0330 63 71 20/ 17/ 23 1016.0R CAPE LOOKOUT NC 0400 66 20/ 14/ 17 1015.7R $$

USA.gov is the U.S. government's official web portal to all federal, state and local government web resources and services.